{"data":{"norad_id":49740,"intl_designator":"2021-115S","name":"STARLINK-3226","alt_names":[],"object_type":"PAYLOAD","status":"ACTIVE","operator":null,"country":"US","launch_date":"2021-12-02","launch_site_code":"AFETR","launch_vehicle":null,"mission":null,"orbit_class":"UNKNOWN","rcs_meters":null,"size_class":null,"mass_kg":null,"dimensions":null,"purposes":["comms"],"wikipedia_slug":null,"has_3d_model":false,"image_url":null,"decayed_at":null,"tle_current":{"epoch":"2026-05-24T19:07:37.431264Z","epoch_age_seconds":92620,"freshness":"FRESH","line1":"1 49740U 21115S   26144.79696101 -.00000958  00000+0 -42081-4 0  9992","line2":"2 49740  53.2145 167.4345 0001512  72.3263 287.7895 15.08847744247027","mean_motion":15.08847744,"eccentricity":0.0001512,"inclination_deg":53.2145,"raan_deg":167.4345,"arg_perigee_deg":72.3263,"mean_anomaly_deg":287.7895,"bstar":-4.2081e-5,"rev_number":24702,"period_min":95.437064854703,"perigee_km":538.6737388195,"apogee_km":540.76569869125,"semimajor_km":6917.8567187554,"source":"CELESTRAK","updated_at":"2026-05-25T13:38:16.834373Z"}}}